GFSFLT2_sfc_wetblb_153.txt.gz
Wetbulb
41.02 42.21 41.21 40.39 40.88 41.36 41.48 40.46 40.33 42.77 43.10 42.65 42.39 42.44 42.69 43.02 43.69 44.14 44.33 44.40 44.68 45.59 45.54 45.81 45.76 45.70 46.19
38.81 39.63 40.11 40.47 40.14 39.51 40.15 40.47 39.47 41.54 42.37 42.18 41.94 42.17 42.43 42.66 42.87 43.11 43.26 42.98 43.22 44.27 44.01 43.61 44.06 44.50 45.25
36.71 39.23 39.65 40.28 38.63 38.79 38.40 38.37 39.34 41.23 41.74 41.91 42.00 42.10 42.24 42.52 42.88 42.86 42.57 42.19 42.66 42.94 42.40 42.52 42.55 42.86 43.86
36.75 37.00 37.63 38.55 38.18 35.95 35.22 36.81 36.30 38.48 39.90 39.92 39.98 40.62 41.63 42.14 42.20 41.63 41.38 41.42 41.74 41.59 41.57 41.15 40.94 41.18 41.93
36.01 36.41 36.19 35.69 34.79 36.46 34.65 35.22 35.84 37.37 36.25 36.26 36.47 36.63 37.05 40.05 40.21 40.58 40.73 41.16 40.70 40.17 40.25 40.54 40.39 40.46 41.07
36.29 35.33 35.96 36.11 36.61 35.51 34.31 32.84 31.30 38.13 35.73 34.90 36.69 35.22 35.71 36.24 39.59 40.36 40.57 41.05 40.68 39.83 39.73 39.77 39.75 39.95 40.56
36.96 36.92 36.43 37.51 37.34 35.37 34.82 33.55 33.21 36.47 35.73 32.84 35.19 33.73 35.57 36.95 39.84 39.82 39.60 39.63 39.53 39.49 39.35 39.44 39.53 39.67 40.09
39.30 38.81 38.74 39.06 38.33 37.29 36.09 35.18 35.62 36.68 36.65 31.31 34.15 32.92 34.45 35.03 39.68 39.86 39.30 39.07 39.12 39.06 39.02 38.95 38.85 39.16 39.22
42.00 41.97 42.45 42.42 40.97 36.17 33.68 32.77 31.99 33.70 36.39 34.18 32.77 31.61 33.23 32.80 34.63 39.37 39.06 38.64 38.37 38.10 38.18 38.19 38.20 38.40 37.53
38.69 39.53 40.19 39.62 42.07 38.28 35.17 32.71 32.26 32.00 35.09 33.01 31.32 30.64 28.76 31.23 33.06 32.09 30.83 34.81 35.69 36.13 36.76 37.08 37.64 34.92 33.46
37.14 37.84 37.92 36.23 37.48 38.38 36.67 35.39 32.92 32.64 35.08 35.02 32.38 30.96 30.50 27.71 27.71 28.72 29.39 30.12 30.74 32.03 35.40 35.58 36.88 35.78 30.13
34.80 35.48 35.75 35.32 35.33 37.81 37.82 37.69 37.33 35.30 35.96 35.03 30.61 31.02 30.37 27.98 25.97 28.59 29.33 29.69 29.21 28.42 28.93 32.69 34.71 35.34 35.79
33.11 34.33 35.17 36.04 35.59 35.15 34.57 34.54 34.68 35.51 36.30 35.06 33.75 32.22 31.77 29.35 28.05 28.37 28.72 28.93 29.11 27.82 28.03 28.70 30.17 30.36 27.79
33.20 34.50 36.04 35.36 33.41 32.79 32.01 31.87 31.70 31.94 34.33 35.44 34.34 33.17 31.34 31.38 30.31 28.59 29.46 27.35 27.99 27.59 27.50 28.18 29.33 29.67 28.65
33.33 33.25 33.26 33.46 32.12 32.30 31.86 31.63 29.94 29.69 30.01 31.42 32.69 32.91 32.59 31.76 28.86 28.91 28.19 27.71 28.26 27.39 26.40 25.95 27.96 29.14 28.45
32.80 32.64 32.14 31.85 31.62 31.61 31.75 31.32 29.87 29.82 30.40 30.44 29.97 28.97 28.84 28.22 32.09 28.18 28.07 27.54 27.47 26.39 26.81 25.55 25.80 28.42 28.82
32.28 32.04 31.98 31.93 32.11 31.28 30.81 30.56 29.86 30.26 31.08 31.19 28.58 26.29 23.69 20.18 26.15 31.90 26.17 26.35 25.29 25.44 26.20 25.85 24.67 26.07 27.77

GFSFLT2_sfc_wetblb_156.txt.gz
Wetbulb
37.38 38.90 36.15 36.66 38.30 39.36 40.01 39.22 39.46 44.54 45.08 44.94 44.74 44.72 44.43 44.20 44.38 44.57 45.33 46.01 46.27 46.06 46.32 46.81 46.59 46.85 46.53
36.98 36.73 36.24 37.82 36.65 35.68 38.45 39.78 38.42 41.74 43.99 44.20 44.38 44.41 44.12 43.99 43.97 44.15 44.21 44.67 44.99 44.72 44.78 45.78 45.55 45.51 45.53
35.80 37.69 37.43 35.66 36.19 35.92 35.91 36.93 38.21 40.87 43.41 44.19 43.96 43.95 43.83 43.63 43.80 43.74 43.70 43.73 43.84 43.45 43.57 44.28 44.19 44.16 44.35
35.77 35.88 36.05 36.15 36.16 35.56 34.54 35.28 35.77 38.36 40.64 41.34 41.41 42.17 43.31 43.67 43.59 43.61 43.79 43.36 43.47 43.24 43.06 43.04 42.71 42.74 42.59
35.41 35.87 35.51 34.57 33.45 35.83 34.84 35.74 35.12 35.58 35.04 35.63 36.52 37.08 37.64 41.20 41.31 42.37 42.46 42.54 42.32 42.47 42.82 42.29 41.62 41.60 41.72
34.94 34.59 36.47 37.56 38.11 36.72 35.96 34.72 32.45 35.10 34.77 34.09 35.56 34.02 35.65 36.16 39.13 40.49 40.84 41.53 41.76 41.85 42.09 41.34 41.03 41.01 41.06
37.21 36.51 35.80 36.48 37.40 36.79 36.05 35.10 34.63 36.79 34.78 32.82 33.29 33.11 34.98 36.62 40.01 40.42 40.58 40.98 41.26 41.68 41.53 40.63 40.46 40.43 40.55
37.59 37.80 38.35 38.78 38.48 38.00 37.35 37.10 37.40 37.26 36.51 32.10 31.46 32.70 32.00 33.64 39.73 40.35 40.59 40.56 40.40 40.50 40.31 40.03 39.84 39.63 39.71
40.00 41.00 41.57 41.98 41.90 39.40 36.81 35.07 32.69 33.51 34.96 33.51 32.33 31.50 30.26 30.47 32.86 40.34 40.30 40.53 40.33 39.78 39.82 39.63 39.18 39.02 38.60
35.86 37.17 38.66 37.89 40.54 38.15 37.14 34.55 33.54 32.11 34.47 33.02 33.76 32.45 29.59 29.04 31.04 31.99 33.42 39.61 39.28 39.26 39.31 38.67 38.49 35.87 34.51
34.04 35.04 35.07 35.30 35.56 37.46 37.21 35.98 34.36 32.96 35.87 35.03 33.51 31.63 30.78 26.05 27.08 29.61 29.27 29.80 29.91 31.49 36.79 37.08 37.32 36.65 33.13
31.28 31.81 31.79 33.36 34.08 35.55 36.69 36.82 38.13 36.31 37.23 36.82 31.82 31.94 30.13 25.74 27.16 26.23 27.17 28.49 28.31 27.81 28.11 33.06 35.91 36.37 37.33
29.75 30.73 31.95 33.60 34.48 35.26 36.06 35.93 36.49 36.81 36.65 35.18 33.18 32.65 31.96 29.63 25.79 25.97 26.81 26.62 27.75 27.60 27.04 27.09 27.15 27.64 26.55
30.75 32.10 33.56 33.16 32.68 33.92 33.59 33.92 32.21 32.10 31.92 32.00 31.94 32.28 31.51 30.82 29.05 22.90 27.14 26.37 27.65 27.87 27.31 26.87 27.42 28.16 27.87
29.88 30.13 30.68 31.38 32.00 33.15 32.95 32.26 30.31 30.70 29.93 30.98 31.65 32.22 33.26 32.08 29.86 29.84 28.31 28.43 28.46 27.88 27.29 26.15 25.33 27.39 27.85
30.27 30.65 30.26 30.38 31.01 31.97 32.27 31.19 30.01 29.85 29.66 30.49 30.56 29.74 29.63 30.35 33.93 28.12 28.16 28.28 28.26 28.54 28.03 24.63 24.72 26.62 28.02
30.82 30.73 30.18 30.53 31.18 31.11 31.53 30.80 29.96 29.72 30.09 30.69 29.88 28.27 23.85 21.51 22.24 33.99 28.63 26.97 27.56 27.12 27.24 26.46 25.72 26.97 27.13

GFSFLT2_sfc_wetblb_162.txt.gz
Wetbulb
37.50 39.12 35.72 35.52 37.44 37.16 37.65 37.88 39.12 44.19 45.98 47.11 48.70 48.96 48.85 48.32 48.31 47.97 47.95 48.18 48.36 48.58 49.02 49.77 50.06 49.98 49.94
36.49 35.91 34.99 36.02 35.93 35.79 37.92 39.31 38.09 41.26 44.16 45.16 45.92 47.56 48.11 48.38 48.37 48.12 47.59 47.43 47.45 47.48 47.84 48.37 49.11 49.48 49.54
34.92 35.55 35.11 34.71 34.82 34.42 34.96 36.24 37.64 40.86 43.08 44.27 44.85 45.08 46.15 47.37 47.74 47.75 47.37 47.34 47.43 46.85 46.59 46.77 47.55 48.26 48.70
34.37 34.49 32.84 34.40 36.06 34.91 34.87 36.27 35.74 37.69 39.77 41.40 42.70 43.34 44.13 44.57 45.75 45.77 46.01 46.41 46.98 46.88 46.52 46.27 46.28 46.29 47.05
33.47 34.22 33.81 32.33 31.59 33.35 33.24 34.12 34.54 34.70 35.43 35.92 35.91 36.62 37.53 40.56 41.76 43.50 44.42 45.65 46.17 46.42 46.24 45.74 46.10 45.41 45.49
32.91 32.52 33.06 34.21 34.62 33.51 33.23 32.41 31.24 34.90 34.11 35.19 36.48 34.54 35.65 36.07 39.87 41.32 43.06 43.75 44.66 45.30 45.70 45.67 45.64 45.71 45.22
34.15 33.21 32.85 33.67 33.84 32.73 32.57 32.68 32.80 36.09 35.96 33.36 36.80 35.38 37.23 36.67 40.77 41.31 41.51 42.66 43.17 44.06 43.78 45.01 45.06 45.23 45.20
32.89 33.22 34.38 34.94 34.56 34.35 34.07 34.28 35.00 35.30 36.05 31.23 35.00 34.58 37.26 36.61 39.74 41.07 42.08 41.96 42.85 43.15 42.46 43.49 43.98 43.90 44.14
38.45 37.78 37.79 37.92 37.63 34.81 31.07 29.43 28.66 30.74 32.92 32.16 32.05 31.72 34.68 35.72 36.57 39.85 40.50 40.73 42.27 42.85 42.44 42.51 42.35 42.80 42.48
34.03 35.61 36.64 36.58 37.71 34.03 30.98 29.39 29.87 29.53 30.88 31.44 32.58 31.88 30.47 34.64 34.79 35.32 34.48 38.60 40.17 42.01 42.63 42.42 42.04 40.27 39.46
34.21 33.16 32.99 30.72 30.41 30.84 31.09 31.72 30.20 29.73 33.13 33.45 32.21 32.27 32.25 31.82 30.26 30.88 33.33 33.10 35.16 37.92 41.52 42.34 41.99 41.05 37.08
28.98 29.18 28.75 28.70 29.28 29.89 30.81 32.87 33.72 32.36 33.45 33.79 31.23 31.33 30.96 30.39 30.50 30.40 29.99 33.38 34.29 33.07 34.77 38.93 41.25 41.85 40.38
27.21 27.61 28.46 29.53 29.70 29.66 31.16 30.98 30.71 31.55 33.38 33.31 32.58 32.49 31.79 30.63 30.68 28.60 27.16 29.60 31.57 31.67 31.78 31.84 31.85 31.14 32.03
27.62 27.92 28.59 28.16 28.97 30.27 29.50 29.87 29.52 29.58 32.34 33.01 33.03 32.55 31.15 31.62 31.85 30.76 29.19 27.62 29.48 30.35 30.44 30.54 30.51 31.32 30.63
26.91 27.29 28.11 28.46 28.59 29.67 30.06 29.65 27.95 27.14 28.85 31.40 32.58 32.63 32.03 31.18 29.95 30.30 28.40 28.67 29.48 29.30 29.25 27.92 28.62 29.29 28.53
27.42 28.01 27.74 27.95 28.47 29.07 30.12 28.65 26.84 27.34 28.62 29.94 30.56 29.49 29.50 30.77 33.63 29.26 29.20 29.15 28.87 28.69 28.36 26.20 25.97 26.89 27.73
28.29 28.17 28.36 28.45 29.16 28.54 27.53 26.88 26.53 28.94 29.17 30.95 29.55 25.05 20.34 20.45 26.44 33.09 28.64 29.06 28.74 28.30 28.55 28.04 23.28 26.58 27.98

GFSFLT2_sfc_wetblb_168.txt.gz
Wetbulb
34.52 35.86 36.14 36.47 37.77 37.17 36.70 35.64 36.46 42.21 43.46 43.59 43.89 44.06 44.72 45.50 46.16 46.68 47.39 48.47 49.46 50.15 50.58 50.92 51.39 51.25 51.14
33.05 33.24 33.24 35.76 36.03 35.70 37.15 38.37 36.19 39.91 42.41 43.14 43.48 43.50 43.81 43.60 43.92 44.35 45.09 45.96 46.50 47.77 49.04 49.83 50.19 50.55 51.09
30.99 32.37 32.35 32.61 33.55 33.22 33.80 34.79 36.34 39.18 40.17 40.87 41.61 42.21 42.82 43.20 43.29 43.28 43.50 44.15 44.63 45.12 45.91 47.26 48.56 49.14 49.37
30.96 32.12 33.09 32.57 33.01 33.01 32.60 34.43 34.01 35.15 37.45 38.72 39.91 40.20 40.89 41.30 41.33 41.64 41.65 41.82 42.41 42.96 43.74 45.21 45.73 46.26 48.15
31.42 31.44 31.41 31.33 29.99 31.31 30.67 31.93 32.60 33.78 32.44 33.28 33.98 33.79 34.64 38.19 38.89 40.06 40.41 40.79 41.22 42.05 42.73 43.09 43.29 44.29 45.35
31.86 30.70 31.17 30.22 30.72 31.59 30.58 28.93 26.81 31.65 30.84 31.23 33.13 33.40 34.38 34.95 38.37 39.51 40.19 40.76 41.07 41.38 41.40 42.16 42.69 42.89 43.51
30.59 30.19 29.43 30.80 32.10 31.60 30.71 30.00 30.10 32.96 32.96 31.34 31.65 30.32 32.40 33.93 37.91 38.89 39.53 39.94 40.36 40.58 40.76 41.34 41.90 42.47 42.56
32.00 32.30 33.02 33.85 33.85 34.21 33.86 32.29 32.02 33.84 34.35 27.77 29.38 28.10 31.09 32.90 37.40 38.23 38.47 38.99 39.49 40.00 40.59 40.46 40.67 41.39 42.01
37.18 37.37 37.36 37.40 36.13 32.27 28.14 26.78 25.71 26.69 28.78 26.63 27.60 29.12 30.12 30.18 32.04 36.56 37.98 38.84 39.19 38.66 39.39 40.34 40.68 41.19 40.28
33.81 32.97 33.61 33.02 35.38 30.80 28.56 26.97 26.70 25.81 28.46 27.42 27.45 28.96 26.44 27.67 29.22 29.87 30.83 35.57 36.73 37.77 38.66 39.25 39.30 36.92 36.35
28.10 28.26 28.25 28.17 28.79 28.93 29.00 28.66 27.03 26.47 30.14 30.27 28.87 28.99 28.26 27.08 28.44 29.67 29.45 30.69 31.37 33.31 36.78 37.64 38.29 38.11 36.25
26.57 26.76 27.83 27.80 27.63 27.63 28.23 29.86 30.38 29.35 30.89 30.73 28.33 28.18 27.12 26.11 25.70 28.61 28.67 30.11 30.97 31.31 31.82 34.81 36.89 38.14 38.94
26.18 26.85 27.60 27.79 28.92 29.20 30.07 29.87 30.36 30.29 31.45 31.37 30.69 29.96 29.29 27.56 26.85 27.85 28.64 30.89 32.41 31.02 30.73 32.20 33.16 33.83 32.74
25.87 26.77 27.66 27.56 27.79 28.56 27.82 27.88 27.92 27.88 30.63 31.54 31.25 30.89 28.32 28.43 29.07 28.17 30.42 28.52 30.73 30.63 30.71 31.52 32.54 32.75 32.19
26.27 26.68 27.13 27.29 27.46 28.48 28.23 27.86 26.11 25.57 26.67 28.43 29.80 30.22 30.40 30.18 28.27 28.80 29.18 29.27 31.02 30.00 29.07 27.34 29.44 30.94 31.77
26.50 26.52 26.43 26.32 26.58 26.51 28.43 24.97 23.78 25.56 25.42 26.01 26.13 26.62 27.36 27.10 32.65 28.47 29.21 28.60 29.57 29.53 28.70 26.17 27.97 29.97 30.91
24.41 24.37 23.67 23.71 24.51 23.56 22.89 24.24 24.66 25.02 25.30 25.38 26.32 25.77 23.00 14.81 23.06 32.53 28.79 29.15 28.48 28.19 28.52 28.06 27.32 28.89 28.90